Regional Weather Roundup
Issued by NWS

Home | Current Version | Previous Version | Graphics & Text | Print | Product List | Glossary On
Versions: 1 2 3 4 5 6 7 8 9 10 11 12 13 14 15 16 17 18 19 20 21 22 23 24 25 26 27 28 29 30 31 32 33 34 35 36 37 38 39 40 41 42 43 44 45 46 47 48 49 50
000
ASUS43 KLOT 241303
RWRIL

ILLINOIS REGIONAL WEATHER ROUNDUP
NATIONAL WEATHER SERVICE CHICAGO/ROMEOVILLE IL
800 AM CDT WED AUG 24 2016

NOTE: "FAIR" INDICATES FEW OR NO CLOUDS BELOW 12,000 FEET WITH NO
SIGNIFICANT WEATHER AND/OR OBSTRUCTIONS TO VISIBILITY.

* THESE STATIONS ARE NOT UNDER NWS QUALITY CONTROL. THEY ALSO MAY NOT
  REPORT WEATHER SUCH AS PRECIPITATION OR FOG.

ILZ001-002-007-009-015-016-024-241400-
NORTHWEST ILLINOIS

CITY           SKY/WX    TMP DP  RH WIND       PRES   REMARKS
MOLINE         LGT RAIN  73  70  90 SE7       29.94S
STERLING*      CLOUDY    70  69  97 VRB3      29.97S
SAVANNA*       RAIN      71  70  96 CALM      29.95S
$$

ILZ003-004-008-010-011-017-018-241400-
NORTH CENTRAL ILLINOIS

CITY           SKY/WX    TMP DP  RH WIND       PRES   REMARKS
ROCKFORD       RAIN      71  69  93 CALM      29.99F FOG
FREEPORT*      CLOUDY    69  68  98 NE6       29.99F
ROCHELLE*      RAIN      70  69  99 CALM      29.99F
$$

ILZ005-006-012>014-019>023-241400-
NORTHEAST ILLINOIS

CITY           SKY/WX    TMP DP  RH WIND       PRES   REMARKS
CHICAGO-OHARE  LGT RAIN  71  68  90 SW15G21   30.01R
CHICAGO-MIDWAY CLOUDY    73  67  81 SW9G20    30.02R
AURORA         RAIN      70  68  93 S6        30.02R FOG
LANSING*       CLOUDY    72  67  84 S12       30.03R
JOLIET*        RAIN      73  71  94 SW7       30.02R
WAUKEGAN       CLOUDY    73  69  87 SW10      30.00R
DUPAGE AIRPORT LGT RAIN  71  68  90 S12       30.02R FOG
KANKAKEE*      CLOUDY    72  69  91 S13       30.05R
WHEELING       LGT RAIN  72  68  87 S9        30.02R
MORRIS*        HVY RAIN  71  70  95 S3        30.01S
ROMEOVILLE*    LGT RAIN  70  67  89 SW10      30.03R
NORTHERLY ISL    N/A     73  66  78 S12         N/A
$$

LMZ740>746-241400-
SOUTHERN LAKE MICHIGAN

STATION/POSITION SKY/WX   TEMP    WIND        PRES    VSBY  WAVE
                          AIR SEA DIR/SP/G                  HT/PER
                          (F)     (DEG/KT/KT) (MB)    (MI)  (FT/S)
SOUTHERN BUOY              74 74  170/ 23/ 29 1014.1          5/ 6
WILMETTE HARBOR            71 69  210/ 10/ 14   N/A           2/ 4
HARRISON CRIB              72     190/ 18/ 21   N/A
BURNHAM HARBOR             72     200/ 11/ 17   N/A
CALUMET HARBOR             72     170/ 12/ 17 1015.5F
BURNS HARBOR               72     180/  9/ 20 1016.9F
MICHIGAN CITY              71     150/ 11/ 13   N/A
MICHIGAN CITY 6N           72 73  180/ 16/ 19   N/A           2/ 2
ST. JOSEPH                 72 74  170/ 16/ 21 1016.6F         2/ 3
$$

ILZ025>027-034>036-040-047-049-050-058-095>099-241400-
WEST-CENTRAL ILLINOIS

CITY           SKY/WX    TMP DP  RH WIND       PRES   REMARKS
QUINCY         CLOUDY    76  73  91 S20G31    29.91F
GALESBURG*     CLOUDY    73  72  97 S7        29.96S
MACOMB*        CLOUDY    74  72  95 SW3       29.98R
JACKSONVILLE*  CLOUDY    76  73  92 S10G17    29.98F
PITTSFIELD*    MOSUNNY   77  73  85 S12G20    29.99F
$$

ILZ028>032-037-038-041>044-048-051>054-059>061-241400-
CENTRAL ILLINOIS

CITY           SKY/WX    TMP DP  RH WIND       PRES   REMARKS
PONTIAC        CLOUDY    73  73 100 S6        30.02F
BLOOMINGTON    TSTM      70  69  97 S9        30.02F FOG
DECATUR        CLOUDY    75  72  90 S15G24    30.03S
PEORIA         CLOUDY    75  74  96 S12       29.97F
LACON*         HVY RAIN  72  70  95 CALM      29.97F VSB 1/4
LINCOLN*       RAIN      75  74  99 S9        30.00R
SPRINGFIELD    CLOUDY    76  73  91 SW10      30.02R
TAYLORVILLE    CLOUDY    75  73  94 S13G24    30.03R
$$

ILZ033-039-045-046-055>057-062-063-241400-
EAST-CENTRAL ILLINOIS

CITY           SKY/WX    TMP DP  RH WIND       PRES   REMARKS
CHAMPAIGN      CLOUDY    73  71  93 S12       30.05S
RANTOUL*       CLOUDY    74  72  94 S9        30.05S
MATTOON        CLOUDY    74  70  87 S12       30.07S
PARIS*         CLOUDY    73  71  95 S7        30.09S
$$

ILZ079-100>102-241400-
SOUTHWEST ILLINOIS

CITY           SKY/WX    TMP DP  RH WIND       PRES   REMARKS
BELLEVILLE     MOSUNNY   77  76  98 S13       30.05S
CAHOKIA*       MOSUNNY   79  73  82 S10       30.04F HX  82
SPARTA*        PTSUNNY   76  73  90 S10G16    30.10R
$$

ILZ064>066-069>071-074>076-080>082-084>086-088>090-092>094-241400-
SOUTH-CENTRAL ILLINOIS

CITY           SKY/WX    TMP DP  RH WIND       PRES   REMARKS
CARBONDALE     CLOUDY    77  73  87 S12       30.10F
EFFINGHAM*     CLOUDY    74  74 100 S9        30.10S
MARION         PTSUNNY   77  73  88 S8        30.13S
MT. VERNON     PTSUNNY   75  70  83 S9        30.12R
CENTRALIA*     PTSUNNY   77  75  93 S15       30.08S
SALEM*         CLOUDY    78  73  86 S13       30.09S HX  80
$$

ILZ067-068-072-073-078-083-087-091-241400-
SOUTHEAST ILLINOIS

CITY           SKY/WX    TMP DP  RH WIND       PRES   REMARKS
LAWRENCEVILLE  MOSUNNY   74  71  91 S8        30.13S
FLORA*         PTSUNNY   76  74  92 S9        30.11R
FAIRFIELD*     PTSUNNY   75  73  93 S6        30.11R
HARRISBURG*    CLOUDY    76  74  93 SW7       30.13S
ROBINSON*      PTSUNNY   72  70  94 S9        30.12S
CARMI*         MOSUNNY   75  73  96 S9        30.13R
$$

ABBREVIATIONS USED IN REMARKS
   TC - TEMPERATURE IN CELSIUS
  WCI - WIND CHILL INDEX
   HX - HEAT INDEX
  VSB - VISIBILITY
$$





USA.gov is the U.S. government's official web portal to all federal, state and local government web resources and services.